EN

Hourly Weather Barnowo

Today, 27 January, Wednesday

Time Temperature Precipitation Wind Pressure Humidity
00:00 -2°C° 0 mm 4 mps 745 mmHg 85%
01:00 -3°C° 0 mm 4 mps 745 mmHg 87%
02:00 -3°C° 0 mm 4 mps 745 mmHg 87%
03:00 -3°C° 0 mm 4 mps 745 mmHg 87%
04:00 -4°C° 0 mm 5 mps 746 mmHg 86%
05:00 -3°C° 0 mm 4 mps 746 mmHg 86%
06:00 -3°C° 0 mm 4 mps 746 mmHg 86%
07:00 -3°C° 0 mm 4 mps 746 mmHg 86%
08:00 -3°C° 0 mm 4 mps 746 mmHg 84%
09:00 -2°C° 0 mm 4 mps 746 mmHg 82%
10:00 -1°C° 0 mm 4 mps 747 mmHg 80%
11:00 -1°C° 0 mm 4 mps 747 mmHg 80%
12:00 0°C° 0 mm 4 mps 747 mmHg 80%
13:00 0°C° 0 mm 4 mps 747 mmHg 81%
14:00 0°C° 0 mm 3 mps 747 mmHg 84%
15:00 0°C° 0 mm 3 mps 747 mmHg 87%
16:00 -1°C° 0 mm 2 mps 746 mmHg 90%
17:00 -1°C° 0 mm 2 mps 746 mmHg 91%
18:00 -2°C° 0 mm 2 mps 746 mmHg 92%
19:00 -4°C° 0 mm 3 mps 746 mmHg 94%
20:00 -2°C° 0 mm 3 mps 746 mmHg 93%
21:00 -2°C° 0 mm 3 mps 746 mmHg 91%
22:00 -1°C° 0 mm 3 mps 746 mmHg 90%
23:00 -1°C° 0 mm 3 mps 745 mmHg 90%

Tomorrow, 28 January, Thursday

Time Temperature Precipitation Wind Pressure Humidity
00:00 -1°C° 0 mm 3 mps 745 mmHg 89%
01:00 -2°C° 0 mm 4 mps 744 mmHg 89%
02:00 -3°C° 0 mm 4 mps 744 mmHg 90%
03:00 -3°C° 0 mm 4 mps 743 mmHg 91%
04:00 -3°C° 0 mm 4 mps 743 mmHg 92%
05:00 -4°C° 0.4 mm 5 mps 742 mmHg 92%
06:00 -4°C° 0.4 mm 5 mps 741 mmHg 93%
07:00 -4°C° 0.4 mm 5 mps 740 mmHg 94%
08:00 -4°C° 0.5 mm 5 mps 740 mmHg 94%
09:00 -2°C° 0.5 mm 5 mps 739 mmHg 95%
10:00 -2°C° 0.5 mm 5 mps 739 mmHg 96%
11:00 -2°C° 0.3 mm 5 mps 739 mmHg 91%
12:00 -2°C° 0.3 mm 5 mps 739 mmHg 86%
13:00 -2°C° 0.3 mm 5 mps 739 mmHg 81%
14:00 -2°C° 0.1 mm 5 mps 738 mmHg 81%
15:00 -3°C° 0.1 mm 4 mps 738 mmHg 81%
16:00 -3°C° 0.1 mm 4 mps 738 mmHg 81%
17:00 -3°C° 0 mm 4 mps 738 mmHg 83%
18:00 -4°C° 0 mm 4 mps 738 mmHg 85%
19:00 -4°C° 0 mm 4 mps 738 mmHg 86%
20:00 -4°C° 0.1 mm 4 mps 738 mmHg 86%
21:00 -4°C° 0.1 mm 4 mps 738 mmHg 86%
22:00 -5°C° 0.1 mm 5 mps 738 mmHg 85%
23:00 -5°C° 0 mm 5 mps 738 mmHg 85%

Day after tomorrow, 29 January, Friday

Time Temperature Precipitation Wind Pressure Humidity
00:00 -5°C° 0 mm 5 mps 738 mmHg 84%
01:00 -5°C° 0 mm 6 mps 738 mmHg 83%
02:00 -5°C° 0.1 mm 6 mps 738 mmHg 84%
03:00 -5°C° 0.1 mm 6 mps 738 mmHg 85%
04:00 -5°C° 0.1 mm 6 mps 738 mmHg 85%
05:00 -5°C° 0.1 mm 5 mps 738 mmHg 86%
06:00 -5°C° 0.1 mm 5 mps 738 mmHg 87%
07:00 -5°C° 0.1 mm 5 mps 738 mmHg 88%
08:00 -4°C° 0.1 mm 4 mps 738 mmHg 88%
09:00 -4°C° 0.1 mm 4 mps 738 mmHg 88%
10:00 -2°C° 0.1 mm 3 mps 738 mmHg 88%
11:00 -2°C° 0 mm 3 mps 737 mmHg 87%
12:00 -2°C° 0 mm 3 mps 737 mmHg 85%
13:00 -2°C° 0 mm 3 mps 737 mmHg 84%
14:00 -2°C° 0 mm 2 mps 737 mmHg 86%
15:00 -2°C° 0 mm 2 mps 737 mmHg 88%
16:00 -1°C° 0 mm 1 mps 736 mmHg 90%
17:00 -1°C° 0 mm 1 mps 736 mmHg 91%
18:00 -1°C° 0 mm 1 mps 736 mmHg 93%
19:00 -1°C° 0 mm 1 mps 736 mmHg 94%
20:00 -1°C° 0.1 mm 1 mps 736 mmHg 94%
21:00 -1°C° 0.1 mm 1 mps 736 mmHg 94%
22:00 -1°C° 0.1 mm 1 mps 736 mmHg 93%
23:00 -1°C° 0.1 mm 1 mps 736 mmHg 94%

30 January, Saturday

Time Temperature Precipitation Wind Pressure Humidity
00:00 -1°C° 0.1 mm 1 mps 736 mmHg 94%
01:00 -1°C° 0.1 mm 1 mps 736 mmHg 94%
02:00 -1°C° 0.3 mm 1 mps 736 mmHg 94%
03:00 -1°C° 0.3 mm 1 mps 736 mmHg 95%
04:00 -1°C° 0.3 mm 1 mps 736 mmHg 96%
05:00 -3°C° 0.7 mm 2 mps 736 mmHg 94%
06:00 -4°C° 0.7 mm 3 mps 736 mmHg 93%
07:00 -4°C° 0.7 mm 4 mps 736 mmHg 92%
08:00 -4°C° 0.1 mm 4 mps 736 mmHg 88%
09:00 -4°C° 0.1 mm 4 mps 736 mmHg 84%
10:00 -4°C° 0.1 mm 4 mps 737 mmHg 80%
11:00 -4°C° 0 mm 4 mps 737 mmHg 77%
12:00 -4°C° 0 mm 4 mps 737 mmHg 74%
13:00 -5°C° 0 mm 5 mps 737 mmHg 72%
14:00 -4°C° 0 mm 4 mps 737 mmHg 74%
15:00 -5°C° 0 mm 4 mps 737 mmHg 76%
16:00 -5°C° 0 mm 4 mps 737 mmHg 78%
17:00 -5°C° 0 mm 3 mps 738 mmHg 80%
18:00 -6°C° 0 mm 3 mps 738 mmHg 82%
19:00 -6°C° 0 mm 3 mps 739 mmHg 84%
20:00 -6°C° 0 mm 3 mps 739 mmHg 84%
21:00 -6°C° 0 mm 3 mps 739 mmHg 83%
22:00 -6°C° 0 mm 3 mps 739 mmHg 83%
23:00 -6°C° 0 mm 3 mps 739 mmHg 85%

31 January, Sunday

Time Temperature Precipitation Wind Pressure Humidity
00:00 -6°C° 0 mm 3 mps 739 mmHg 86%
01:00 -6°C° 0 mm 3 mps 739 mmHg 88%
02:00 -5°C° 0 mm 4 mps 739 mmHg 88%
03:00 -5°C° 0 mm 4 mps 739 mmHg 87%
04:00 -4°C° 0 mm 4 mps 739 mmHg 87%
05:00 -4°C° 0 mm 4 mps 739 mmHg 89%
06:00 -4°C° 0 mm 4 mps 739 mmHg 91%
07:00 -5°C° 0 mm 5 mps 739 mmHg 92%
08:00 -5°C° 0 mm 5 mps 739 mmHg 91%
09:00 -5°C° 0 mm 5 mps 739 mmHg 89%
10:00 -5°C° 0 mm 6 mps 739 mmHg 88%
11:00 -5°C° 0 mm 6 mps 739 mmHg 87%
12:00 -5°C° 0 mm 6 mps 739 mmHg 86%
13:00 -4°C° 0 mm 6 mps 739 mmHg 85%
14:00 -4°C° 0 mm 5 mps 739 mmHg 86%
15:00 -5°C° 0 mm 5 mps 739 mmHg 86%
16:00 -5°C° 0 mm 5 mps 739 mmHg 86%
17:00 -5°C° 0 mm 5 mps 739 mmHg 86%
18:00 -5°C° 0 mm 4 mps 739 mmHg 86%
19:00 -7°C° 0 mm 4 mps 739 mmHg 86%
20:00 -7°C° 0 mm 4 mps 738 mmHg 84%
21:00 -7°C° 0 mm 4 mps 738 mmHg 83%
22:00 -7°C° 0 mm 3 mps 738 mmHg 81%
23:00 -7°C° 0 mm 3 mps 738 mmHg 81%

1 February, Monday

Time Temperature Precipitation Wind Pressure Humidity
00:00 -7°C° 0 mm 3 mps 738 mmHg 81%
01:00 -6°C° 0 mm 2 mps 738 mmHg 81%
02:00 -7°C° 0 mm 2 mps 737 mmHg 80%
03:00 -7°C° 0 mm 2 mps 737 mmHg 79%
04:00 -7°C° 0 mm 2 mps 737 mmHg 78%
05:00 -7°C° 0 mm 2 mps 737 mmHg 77%
06:00 -7°C° 0 mm 2 mps 737 mmHg 75%
07:00 -7°C° 0 mm 2 mps 737 mmHg 74%
08:00 -6°C° 0 mm 2 mps 738 mmHg 74%
09:00 -6°C° 0 mm 2 mps 738 mmHg 73%
10:00 -5°C° 0 mm 2 mps 738 mmHg 72%
11:00 -4°C° 0 mm 2 mps 738 mmHg 71%
12:00 -3°C° 0 mm 2 mps 738 mmHg 69%
13:00 -2°C° 0 mm 2 mps 738 mmHg 68%
14:00 -3°C° 0 mm 2 mps 739 mmHg 72%
15:00 -3°C° 0 mm 2 mps 739 mmHg 76%
16:00 -4°C° 0 mm 2 mps 739 mmHg 80%
17:00 -4°C° 0 mm 2 mps 739 mmHg 83%
18:00 -4°C° 0 mm 2 mps 740 mmHg 86%
19:00 -5°C° 0 mm 2 mps 740 mmHg 89%
20:00 -5°C° 0 mm 2 mps 741 mmHg 91%
21:00 -5°C° 0 mm 2 mps 741 mmHg 92%
22:00 -4°C° 0 mm 2 mps 742 mmHg 94%
23:00 -5°C° 0 mm 3 mps 742 mmHg 94%
Show more

We Need Your Consent

Meteoprog and our Service Providers may store and access personal data such as cookies, device identifiers or other similar technologies on your device and process such data to personalise content and ads, as well as provide social media features and to analyse the traffic.

  • Store and/or access information on your device

    Cookies, device identifiers or other information can be stored or accessed on your device for the purposes indicated above.

  • Personalised ads and content, ad and content measurement, audience insights, and products development

    Ads and content can be personalised based on a profile. More data can be added to better personalise ads and content. Ad and content performance can be measured. Insights about the audience who saw the ads and content can be derived. Such data can be used to develop or improve user’s experience, systems and software.

By clicking ‘I Agree’ you will allow the use of indicated cookies, device identifiers, web beacons or other similar technologies. Your settings can be changed in the browser on your device.

For certain purposes, legitimate interests may be relied on, rather than consent. You can read more about this in our Privacy and Cookie Policy.